EW3770 Weather Reports


Display with metric or nautical units.
time (UTC)temp
F
wind
direction
speed
MPH
gust
MPH
rain 1hr
in
rain 24hr
in
rain mn
in
humidity
%
barometer
mb
20260831233603 62 189 2.0 7.0 0.12 0.12 0.12 84 1027.4
20260831232724 63 217 5.0 12.0 0.12 0.12 0.12 81 1027.4
20260831231803 64 222 7.0 20.0 0.10 0.10 0.10 76 1027.4
20260831230903 66 217 10.0 19.0 0.06 0.06 0.06 70 1027.4
20260831230003 71 201 11.0 30.0 0.03 0.03 0.03 57 1027.4
20260831225424 73 203 9.0 23.0 0.00 0.00 0.00 46 1027.4
20260831224503 75 188 5.0 18.0 0.00 0.00 0.00 41 1027.4
20260831223624 76 175 3.0 9.0 0.00 0.00 0.00 49 1027.4
20260831222703 77 172 3.0 11.0 0.00 0.00 0.00 48 1027.4
20260831221824 78 162 3.0 8.0 0.00 0.00 0.00 48 1027.4
20260831220925 78 174 3.0 9.0 0.00 0.00 0.00 48 1027.4
20260831220024 80 167 3.0 13.0 0.00 0.00 0.00 46 1027.4
20260831215403 81 157 3.0 13.0 0.00 0.00 0.00 45 1027.4
20260831214503 83 155 2.0 10.0 0.00 0.00 0.00 41 1027.4
20260831213603 83 153 1.0 6.0 0.00 0.00 0.00 36 1027.4
20260831212724 84 135 1.0 7.0 0.00 0.00 0.00 38 1027.4
20260831211803 83 148 1.0 7.0 0.00 0.00 0.00 38 1027.4
20260831210903 83 129 3.0 11.0 0.00 0.00 0.00 34 1027.4
20260831210024 83 124 4.0 14.0 0.00 0.00 0.00 37 1027.4
20260831205403 82 131 5.0 14.0 0.00 0.00 0.00 36 1027.4
20260831204503 82 157 1.0 9.0 0.00 0.00 0.00 37 1027.4
20260831203603 82 125 2.0 10.0 0.00 0.00 0.00 39 1027.4
20260831202724 82 137 2.0 10.0 0.00 0.00 0.00 37 1027.4
20260831201824 82 138 2.0 7.0 0.00 0.00 0.00 39 1027.4
20260831200903 82 134 3.0 12.0 0.00 0.00 0.00 40 1027.4
20260831200024 81 141 2.0 9.0 0.00 0.00 0.00 40 1027.4
20260831195403 80 141 2.0 9.0 0.00 0.00 0.00 43 1027.4
20260831194503 80 153 2.0 7.0 0.00 0.00 0.00 40 1027.4
20260831193603 80 157 2.0 7.0 0.00 0.00 0.00 43 1027.4
20260831192703 79 177 1.0 4.0 0.00 0.00 0.00 46 1027.4
20260831191824 78 132 1.0 5.0 0.00 0.00 0.00 48 1027.4
20260831190903 78 136 1.0 6.0 0.00 0.00 0.00 48 1027.4
20260831190003 77 180 2.0 7.0 0.00 0.00 0.00 48 1027.4
20260831185403 77 184 2.0 6.0 0.00 0.00 0.00 50 1027.4
20260831184503 76 190 1.0 6.0 0.00 0.00 0.00 50 1027.4
20260831183603 76 177 2.0 7.0 0.00 0.00 0.00 51 1027.4
20260831182703 76 191 1.0 7.0 0.00 0.00 0.00 51 1027.4
20260831181803 76 179 1.0 4.0 0.00 0.00 0.00 51 1027.4
20260831180903 76 176 1.0 6.0 0.00 0.00 0.00 52 1027.4
20260831180003 76 191 1.0 4.0 0.00 0.00 0.00 52 1027.4
20260831175403 75 169 1.0 5.0 0.00 0.00 0.00 55 1027.4
20260831174503 74 152 2.0 8.0 0.00 0.00 0.00 55 1027.4
20260831173603 74 141 3.0 11.0 0.00 0.00 0.00 55 1027.4
20260831172703 74 150 2.0 10.0 0.00 0.00 0.00 52 1027.4
20260831171803 74 141 2.0 10.0 0.00 0.00 0.00 54 1027.4
20260831170903 74 168 2.0 7.0 0.00 0.00 0.00 54 1027.4
20260831170003 74 180 2.0 5.0 0.00 0.00 0.00 55 1027.4
20260831165403 74 161 2.0 8.0 0.00 0.00 0.00 53 1027.4
20260831164503 75 146 2.0 8.0 0.00 0.00 0.00 52 1027.4
20260831163624 76 171 1.0 7.0 0.00 0.00 0.00 53 1027.4
20260831162703 75 140 2.0 13.0 0.00 0.00 0.00 51 1027.4
20260831161803 75 127 6.0 13.0 0.00 0.00 0.00 54 1027.4
20260831160903 75 131 4.0 12.0 0.00 0.00 0.00 52 1027.4
20260831160024 75 127 2.0 8.0 0.00 0.00 0.00 54 1027.4
20260831155403 74 126 2.0 8.0 0.00 0.00 0.00 54 1027.4
20260831154503 74 127 1.0 7.0 0.00 0.00 0.00 56 1027.4
20260831153603 73 127 2.0 7.0 0.00 0.00 0.00 59 1027.4
20260831152724 72 131 2.0 7.0 0.00 0.00 0.00 58 1027.4
20260831151824 72 162 2.0 9.0 0.00 0.00 0.00 60 1027.4
20260831150903 71 169 1.0 7.0 0.00 0.00 0.00 62 1027.4
20260831150003 71 189 1.0 4.0 0.00 0.00 0.00 61 1027.4
20260831145403 71 186 0.0 4.0 0.00 0.00 0.00 62 1027.4
20260831144503 69 187 0.0 4.0 0.00 0.00 0.00 65 1027.4
20260831143603 68 188 0.0 2.0 0.00 0.00 0.00 69 1027.4
20260831142703 66 190 0.0 2.0 0.00 0.00 0.00 71 1027.4
20260831141803 65 195 1.0 3.0 0.00 0.00 0.00 73 1027.4
20260831140903 64 199 1.0 4.0 0.00 0.00 0.00 76 1027.4
20260831140003 62 222 1.0 4.0 0.00 0.00 0.00 79 1027.4
20260831135403 61 236 0.0 3.0 0.00 0.00 0.00 83 1027.4
20260831134503 60 344 0.0 1.0 0.00 0.00 0.00 85 1027.4
20260831133603 59 344 0.0 1.0 0.00 0.00 0.00 84 1027.4
20260831132703 59 343 0.0 2.0 0.00 0.00 0.00 84 1027.4
20260831131803 59 0 0.0 0.0 0.00 0.00 0.00 83 1027.4
20260831130924 59 0 0.0 0.0 0.00 0.00 0.00 84 1027.4
20260831130003 59 340 0.0 3.0 0.00 0.00 0.00 85 1027.4
20260831125403 58 337 0.0 1.0 0.00 0.00 0.00 85 1027.4
20260831124503 58 0 0.0 0.0 0.00 0.00 0.00 85 1027.4
20260831123603 58 349 0.0 4.0 0.00 0.00 0.00 86 1027.4
20260831122724 58 355 0.0 4.0 0.00 0.00 0.00 86 1027.4
20260831121803 58 355 0.0 1.0 0.00 0.01 0.00 86 1027.4
20260831120903 58 355 0.0 1.0 0.00 0.01 0.00 86 1027.4
20260831120003 58 355 0.0 1.0 0.00 0.01 0.00 86 1027.4
20260831115403 58 355 0.0 1.0 0.00 0.01 0.00 86 1027.4
20260831114524 58 0 0.0 0.0 0.00 0.01 0.00 86 1027.4
20260831113604 57 355 0.0 3.0 0.00 0.02 0.00 86 1027.4
20260831112703 57 0 0.0 0.0 0.00 0.03 0.00 86 1027.4
20260831111824 57 355 0.0 1.0 0.00 0.18 0.00 86 1027.4
20260831110903 57 0 0.0 0.0 0.00 0.18 0.00 86 1027.4
20260831110003 57 0 0.0 0.0 0.00 0.18 0.00 86 1027.4
20260831105403 57 355 0.0 1.0 0.00 0.18 0.00 86 1027.4
20260831104524 58 0 0.0 0.0 0.00 0.18 0.00 86 1027.4
20260831103603 57 0 0.0 0.0 0.00 0.18 0.00 86 1027.4
20260831102703 57 355 0.0 3.0 0.00 0.18 0.00 85 1027.4
20260831101803 57 355 1.0 3.0 0.00 0.18 0.00 85 1027.4
20260831100903 58 0 0.0 0.0 0.00 0.18 0.00 84 1027.4
20260831100003 58 355 0.0 1.0 0.00 0.18 0.00 83 1027.4
20260831095424 58 355 0.0 1.0 0.00 0.18 0.00 83 1027.4
20260831094503 58 355 0.0 1.0 0.00 0.18 0.00 82 1027.4
20260831093603 59 0 0.0 0.0 0.00 0.18 0.00 82 1027.4
20260831092724 59 0 0.0 0.0 0.00 0.18 0.00 81 1027.4
20260831091803 59 355 0.0 1.0 0.00 0.18 0.00 81 1027.4
20260831090903 59 355 0.0 1.0 0.00 0.18 0.00 81 1027.4
20260831090003 59 0 0.0 0.0 0.00 0.18 0.00 80 1027.4
20260831085403 59 0 0.0 0.0 0.00 0.18 0.00 80 1027.4
20260831084503 60 0 0.0 0.0 0.00 0.18 0.00 80 1027.4
20260831083603 60 0 0.0 0.0 0.00 0.18 0.00 79 1027.4
20260831082703 60 355 0.0 1.0 0.00 0.18 0.00 78 1027.4
20260831081803 60 0 0.0 0.0 0.00 0.18 0.00 78 1027.4
20260831080924 60 355 0.0 2.0 0.00 0.18 0.00 77 1027.4
20260831080003 60 0 0.0 0.0 0.00 0.18 0.00 77 1027.4
20260831075403 60 0 0.0 0.0 0.00 0.18 0.00 76 1027.4
20260831074504 61 0 0.0 0.0 0.00 0.18 0.00 75 1027.4
20260831073603 61 0 0.0 0.0 0.00 0.18 0.00 75 1027.4
20260831072703 61 0 0.0 0.0 0.00 0.18 0.00 75 1027.4
20260831071803 61 353 0.0 2.0 0.00 0.18 0.00 75 1027.4
20260831070903 61 358 1.0 3.0 0.00 0.18 0.00 75 1027.4
20260831070003 61 360 0.0 2.0 0.00 0.18 0.00 74 1027.4
20260831065403 62 360 0.0 1.0 0.00 0.18 0.00 74 1027.4
20260831064503 62 0 0.0 0.0 0.00 0.18 0.00 74 1027.4
20260831063624 62 0 0.0 0.0 0.00 0.18 0.00 73 1027.4
20260831062703 62 0 0.0 0.0 0.00 0.18 0.00 73 1027.4
20260831061803 62 0 0.0 0.0 0.00 0.18 0.00 72 1027.4
20260831060903 62 360 0.0 1.0 0.00 0.18 0.00 72 1027.4
20260831060004 62 0 0.0 0.0 0.00 0.18 0.00 72 1027.4
20260831055403 62 0 0.0 0.0 0.00 0.18 0.18 72 1027.4
20260831054503 62 0 0.0 0.0 0.00 0.18 0.18 72 1027.4
20260831053603 63 360 0.0 2.0 0.00 0.18 0.18 72 1027.4
20260831052703 63 0 0.0 0.0 0.00 0.18 0.18 72 1027.4
20260831051803 63 360 0.0 1.0 0.00 0.18 0.18 73 1027.4
20260831050903 64 360 0.0 1.0 0.00 0.18 0.18 73 1027.4
20260831050003 64 0 0.0 0.0 0.00 0.19 0.18 72 1027.4
20260831045424 64 0 0.0 0.0 0.00 0.19 0.18 71 1027.4
20260831044503 65 360 0.0 1.0 0.00 0.21 0.18 70 1027.4
20260831043603 65 360 0.0 1.0 0.00 0.22 0.18 69 1027.4
20260831042703 66 360 0.0 2.0 0.00 0.22 0.18 68 1027.4
20260831041803 66 360 0.0 2.0 0.00 0.23 0.18 67 1027.4
20260831040003 67 360 1.0 3.0 0.00 0.23 0.18 64 1027.4
20260831035403 67 360 0.0 1.0 0.00 0.23 0.18 63 1027.4
20260831034503 67 360 1.0 4.0 0.00 0.23 0.18 61 1027.4
20260831033603 67 360 0.0 3.0 0.00 0.23 0.18 61 1027.4
20260831032703 67 360 0.0 2.0 0.00 0.23 0.18 63 1027.4
20260831031803 68 360 0.0 2.0 0.00 0.23 0.18 63 1027.4
20260831030903 68 360 0.0 1.0 0.00 0.23 0.18 65 1027.4
20260831030024 68 0 0.0 0.0 0.00 0.23 0.18 63 1027.4
20260831025403 69 0 0.0 0.0 0.00 0.23 0.18 62 1027.4
20260831024524 70 0 0.0 0.0 0.00 0.23 0.18 59 1027.4
20260831023603 70 0 0.0 0.0 0.00 0.23 0.18 56 1027.4
20260831022703 72 0 0.0 0.0 0.00 0.23 0.18 54 1027.4
20260831021803 72 0 0.0 0.0 0.00 0.23 0.18 49 1027.4
20260831020903 73 0 0.0 0.0 0.00 0.23 0.18 49 1027.4
20260831020003 74 360 0.0 3.0 0.00 0.23 0.18 47 1027.4
20260831015424 74 360 0.0 3.0 0.00 0.23 0.18 48 1027.4
20260831014503 75 360 1.0 4.0 0.00 0.23 0.18 46 1027.4
20260831013624 76 360 1.0 3.0 0.00 0.23 0.18 46 1027.4
20260831012703 76 360 1.0 6.0 0.00 0.23 0.18 46 1027.4
20260831011803 76 360 2.0 8.0 0.00 0.24 0.18 46 1027.4
20260831010924 77 360 1.0 6.0 0.00 0.24 0.18 46 1027.4
20260831010003 77 350 3.0 6.0 0.00 0.29 0.18 45 1027.4
20260831005424 77 2 3.0 9.0 0.00 0.29 0.18 45 1027.4
20260831004503 77 27 3.0 9.0 0.00 0.29 0.18 44 1027.4
20260831003603 77 54 3.0 6.0 0.00 0.29 0.18 45 1027.4
20260831002724 78 67 2.0 6.0 0.00 0.29 0.18 48 1027.4
20260831001803 78 59 3.0 5.0 0.00 0.29 0.18 49 1027.4
20260831000903 78 62 2.0 5.0 0.00 0.29 0.18 46 1027.4
20260831000003 78 76 3.0 8.0 0.00 0.29 0.18 44 1027.4
20260830235424 78 92 2.0 8.0 0.00 0.29 0.18 47 1027.4
20260830234503 77 105 2.0 4.0 0.00 0.29 0.18 51 1027.4